[[{"header":{"parameterUnit":"m.s-1","parameterCategory":1,"la1":30.2991,"la2":30.254,"lo1":-89.0895,"lo2":-89.0444,"dy":0.0017,"dx":0.0017,"nx":28,"ny":28,"refTime":"2025-06-11T21:00:00:Z","depth":0,"parameterNumber":2,"parameterNumberName":"U-component_of_WINDS"},"data":[0,0,0,0,0,0,0,0,0,0,0,0,0,0,0,0,0,0,0,0,0,0,0,0,0,0,0,0,0,0,0,0,0,0,0,0,0,0,0,0,0,0,0,0,0,0,0,0,0,0,0,0,0,0,0,0,0,0,-1.4994,-1.4995,0,-1.5109,-1.511,-1.5111,-1.5163,-1.5163,-1.5163,-1.5163,-1.5283,-1.5287,-1.529,0,0,0,0,0,0,0,0,0,0,0,0,0,-1.4823,-1.4826,-1.4994,-1.4995,-1.4997,-1.5108,-1.511,-1.5112,-1.5163,-1.5163,-1.5163,-1.5163,-1.5282,-1.5286,-1.529,0,0,0,0,0,0,0,0,0,0,0,0,0,-1.4913,-1.4827,-1.4993,-1.5036,-1.5041,-1.5108,-1.511,-1.5112,-1.5163,-1.5163,-1.5163,-1.5163,-1.5281,-1.5286,-1.5291,-1.5325,0,0,-1.5306,-1.5308,0,0,0,0,0,0,0,0,-1.4908,-1.4919,-1.5028,-1.5033,-1.5039,-1.5121,-1.5094,-1.5184,-1.5163,-1.5117,-1.5163,-1.5163,-1.523,-1.5239,-1.5261,-1.5331,-1.5336,-1.5306,-1.5309,-1.5312,-1.5313,0,0,0,0,0,0,0,-1.4902,-1.4915,-1.5039,-1.503,-1.5036,-1.505,-1.5063,-1.5111,-1.5173,-1.5121,-1.5125,-1.5138,-1.5233,-1.5256,-1.5264,-1.5338,-1.5306,-1.5311,-1.5314,-1.5316,-1.5443,-1.5443,0,0,0,0,0,0,-1.4888,-1.4909,-1.5036,-1.5043,-1.4971,-1.5053,-1.5068,-1.5095,-1.5173,-1.5184,-1.5138,-1.514,-1.5248,-1.5258,-1.5269,-1.5315,-1.5312,-1.5316,-1.5319,-1.5443,-1.5443,-1.5444,0,0,0,0,0,0,-1.4884,-1.4899,-1.5031,-1.4977,-1.4995,-1.5057,-1.5087,-1.5097,-1.5121,-1.5185,-1.5197,-1.515,-1.5248,-1.5262,-1.5311,-1.532,-1.5318,-1.5323,-1.5442,-1.5443,-1.5443,-1.5407,0,0,0,0,0,0,-1.4879,-1.4897,-1.491,-1.4977,-1.4998,-1.507,-1.5088,-1.51,-1.5129,-1.5133,-1.52,-1.5211,-1.5249,-1.5303,-1.5316,-1.5327,-1.5327,-1.5442,-1.5442,-1.5443,-1.5407,-1.5406,-1.5405,0,0,0,0,0,-1.4873,-1.4896,-1.491,-1.4925,-1.5015,-1.507,-1.5082,-1.5125,-1.5129,-1.5144,-1.5185,-1.5209,-1.5317,-1.5308,-1.5322,-1.5335,-1.5441,-1.5442,-1.5443,-1.5408,-1.5406,-1.5405,0,0,0,0,0,0,-1.4829,-1.4905,-1.4922,-1.4968,-1.5012,-1.5079,-1.5098,-1.5121,-1.5166,-1.5168,-1.5219,-1.5234,-1.5279,-1.5312,-1.5301,-1.5373,-1.5381,-1.5385,-1.5349,-1.5348,-1.5347,-1.5338,-1.5331,0,0,0,0,0,-1.4825,-1.4862,-1.4927,-1.4961,-1.4982,-1.5036,-1.5062,-1.5091,-1.5139,-1.5159,-1.5204,-1.5251,-1.5296,-1.5324,-1.5368,-1.5412,-1.5428,-1.5428,-1.5427,-1.5426,-1.5428,-1.5455,-1.5456,-1.5446,-1.5446,-1.5446,0,0,-1.4816,-1.4862,-1.4883,-1.4953,-1.4991,-1.503,-1.5052,-1.5092,-1.5122,-1.5165,-1.5214,-1.5249,-1.5305,-1.5352,-1.5375,-1.5381,-1.5435,-1.5427,-1.5425,-1.5429,-1.5456,-1.5457,-1.5457,-1.5447,-1.5447,-1.5447,0,0,-1.482,-1.4859,-1.4891,-1.4928,-1.4985,-1.5021,-1.5028,-1.5092,-1.5117,-1.5167,-1.52,-1.5237,-1.5312,-1.5351,-1.5381,-1.54,-1.5423,-1.5413,-1.5406,-1.5431,-1.5432,-1.5433,-1.544,-1.5442,-1.5415,-1.5415,-1.5415,0,-1.4803,-1.4862,-1.4905,-1.4943,-1.4974,-1.5014,-1.5047,-1.5082,-1.5151,-1.5171,-1.5177,-1.5272,-1.5313,-1.537,-1.5374,-1.5397,-1.5408,-1.5405,-1.5428,-1.5429,-1.5431,-1.5439,-1.5441,-1.5414,-1.5414,-1.5414,-1.5414,0,-1.4838,-1.4878,-1.4897,-1.4962,-1.4994,-1.503,-1.508,-1.5108,-1.5134,-1.5169,-1.522,-1.527,-1.5325,-1.5341,-1.5367,-1.5402,-1.5404,-1.5418,-1.5427,-1.5429,-1.5437,-1.5441,-1.5411,-1.5412,-1.5412,-1.5413,0,0,-1.4818,-1.4905,-1.4912,-1.4941,-1.5007,-1.504,-1.5078,-1.5131,-1.5154,-1.5201,-1.5234,-1.5297,-1.5311,-1.5345,-1.5375,-1.5397,-1.541,-1.5409,-1.5411,-1.5408,-1.5452,-1.5441,-1.5444,-1.5426,-1.5427,-1.5427,-1.5447,0,-1.4831,-1.49,-1.494,-1.4993,-1.5031,-1.507,-1.5103,-1.5148,-1.5182,-1.522,-1.5259,-1.5303,-1.5317,-1.5338,-1.5361,-1.5403,-1.542,-1.5402,-1.5459,-1.546,-1.5444,-1.5448,-1.5436,-1.5453,-1.5451,-1.5451,-1.5452,0,-1.4856,-1.49,-1.4956,-1.5018,-1.5035,-1.5064,-1.5117,-1.5153,-1.5204,-1.5228,-1.5265,-1.5296,-1.5339,-1.5345,-1.5405,-1.5392,-1.5418,-1.5442,-1.5444,-1.5451,-1.5456,-1.5455,-1.5459,-1.5461,-1.5457,-1.5457,-1.5456,0,-1.4836,-1.491,-1.4953,-1.4977,-1.505,-1.507,-1.5101,-1.5152,-1.5182,-1.5228,-1.5248,-1.5299,-1.5327,-1.5366,-1.5411,-1.5411,-1.5467,-1.5476,-1.5488,-1.5487,-1.5499,-1.5497,-1.5507,-1.5514,-1.5514,-1.5514,-1.5514,0,-1.4847,-1.488,-1.4945,-1.4972,-1.501,-1.5057,-1.5094,-1.5129,-1.5174,-1.5209,-1.5246,-1.5278,-1.5334,-1.5374,-1.5409,-1.5454,-1.5466,-1.5487,-1.5496,-1.5484,-1.5481,-1.5502,-1.5502,-1.5515,-1.5515,-1.5515,-1.5515,0,-1.4832,-1.4876,-1.4926,-1.4991,-1.5008,-1.5033,-1.5089,-1.5117,-1.5153,-1.5197,-1.521,-1.5267,-1.5315,-1.5363,-1.5429,-1.5452,-1.5497,-1.5509,-1.5479,-1.5484,-1.5494,-1.5492,-1.5517,-1.5523,-1.5526,-1.5525,-1.5525,0,-1.4836,-1.4862,-1.4929,-1.4954,-1.4984,-1.5025,-1.5055,-1.5102,-1.5133,-1.5193,-1.5214,-1.5265,-1.5308,-1.5384,-1.5432,-1.5483,-1.5496,-1.5502,-1.5504,-1.5491,-1.5497,-1.5495,-1.5498,-1.55,-1.55,-1.55,-1.5499,0,-1.4838,-1.4859,-1.4901,-1.495,-1.4985,-1.5026,-1.5069,-1.5088,-1.5144,-1.5176,-1.5225,-1.5259,-1.5325,-1.5376,-1.5432,-1.5466,-1.5492,-1.5498,-1.5504,-1.5492,-1.5473,-1.5484,-1.5475,-1.5497,-1.5498,-1.5498,-1.5498,-1.5498,-1.4833,-1.4858,-1.4909,-1.4954,-1.4991,-1.503,-1.506,-1.5099,-1.5141,-1.5198,-1.5224,-1.5273,-1.5325,-1.5403,-1.5437,-1.5477,-1.5484,-1.5492,-1.5494,-1.5495,-1.5493,-1.5467,-1.5488,-1.5488,-1.5488,-1.5488,-1.5488,0,-1.4838,-1.4873,-1.4914,-1.4972,-1.5008,-1.5028,-1.5077,-1.5106,-1.5149,-1.5194,-1.5236,-1.5293,-1.5342,-1.5394,-1.5446,-1.5469,-1.5483,-1.5481,-1.548,-1.5488,-1.5483,-1.5473,-1.5469,-1.5469,-1.5469,-1.5469,-1.5469,-1.5469,-1.4845,-1.4889,-1.4915,-1.4978,-1.5013,-1.5061,-1.5087,-1.5124,-1.516,-1.5222,-1.5263,-1.5296,-1.5344,-1.5401,-1.5447,-1.5461,-1.5479,-1.5474,-1.5492,-1.5487,-1.5488,-1.5489,-1.548,-1.5477,-1.5478,-1.5493,-1.5493,-1.5493]},{"header":{"parameterUnit":"m.s-1","parameterCategory":1,"la1":30.2991,"la2":30.254,"lo1":-89.0895,"lo2":-89.0444,"dy":0.0017,"dx":0.0017,"nx":28,"ny":28,"refTime":"2025-06-11T21:00:00:Z","depth":0,"parameterNumber":3,"parameterNumberName":"V-component_of_WINDS"},"data":[0,0,0,0,0,0,0,0,0,0,0,0,0,0,0,0,0,0,0,0,0,0,0,0,0,0,0,0,0,0,0,0,0,0,0,0,0,0,0,0,0,0,0,0,0,0,0,0,0,0,0,0,0,0,0,0,0,0,4.5949,4.5949,0,4.5967,4.5968,4.5968,4.5904,4.5902,4.59,4.5898,4.5915,4.5918,4.592,0,0,0,0,0,0,0,0,0,0,0,0,0,4.5855,4.5857,4.5949,4.5949,4.5949,4.5967,4.5968,4.5968,4.5904,4.5901,4.5899,4.5897,4.5915,4.5917,4.592,0,0,0,0,0,0,0,0,0,0,0,0,0,4.5887,4.5857,4.5949,4.5919,4.5917,4.5967,4.5968,4.5968,4.5904,4.5901,4.5899,4.5896,4.5914,4.5917,4.592,4.5999,0,0,4.5931,4.5932,0,0,0,0,0,0,0,0,4.5885,4.589,4.5923,4.5922,4.5919,4.593,4.5941,4.5978,4.5905,4.5909,4.5898,4.5894,4.5923,4.5925,4.5935,4.6,4.6001,4.5931,4.5933,4.5935,4.5936,0,0,0,0,0,0,0,4.5883,4.5889,4.5956,4.5924,4.5921,4.5904,4.5906,4.5948,4.5932,4.5909,4.5904,4.5907,4.5921,4.5932,4.5935,4.6001,4.5931,4.5934,4.5936,4.5937,4.6129,4.6132,0,0,0,0,0,0,4.5885,4.5888,4.5955,4.5957,4.5895,4.5909,4.591,4.5929,4.5931,4.5929,4.591,4.5904,4.5927,4.5931,4.5935,4.6025,4.5935,4.5938,4.594,4.6126,4.613,4.6133,0,0,0,0,0,0,4.5883,4.5891,4.5955,4.5921,4.5928,4.5913,4.5936,4.5931,4.5942,4.5932,4.5929,4.5924,4.5925,4.593,4.5983,4.6025,4.5939,4.5942,4.6123,4.6128,4.6132,4.6208,0,0,0,0,0,0,4.5881,4.5891,4.5922,4.5922,4.593,4.6004,4.5938,4.5934,4.5948,4.5941,4.5944,4.5942,4.5923,4.5979,4.5987,4.6028,4.5945,4.6119,4.6125,4.613,4.6202,4.6215,4.6226,0,0,0,0,0,4.5877,4.5943,4.5924,4.5932,4.5968,4.6006,4.601,4.5988,4.5952,4.5982,4.5975,4.5942,4.602,4.5985,4.5993,4.6036,4.6116,4.6123,4.613,4.6196,4.6212,4.6225,0,0,0,0,0,0,4.5947,4.5942,4.5921,4.5988,4.5998,4.5995,4.6032,4.6006,4.6025,4.6018,4.5989,4.599,4.6047,4.6048,4.6008,4.6112,4.6062,4.6071,4.6109,4.6124,4.6136,4.6134,4.5948,0,0,0,0,0,4.5971,4.6003,4.5997,4.6057,4.6063,4.6047,4.6063,4.6045,4.6053,4.6057,4.6054,4.6063,4.6089,4.6107,4.6131,4.6202,4.62,4.6236,4.6248,4.6258,4.6265,4.6301,4.6315,4.6156,4.6156,4.6156,0,0,4.6019,4.602,4.6042,4.6071,4.6076,4.6109,4.6051,4.6089,4.6112,4.6062,4.6111,4.611,4.6118,4.618,4.6207,4.6182,4.6309,4.6267,4.6275,4.6277,4.6309,4.6324,4.6338,4.6161,4.616,4.6159,0,0,4.6123,4.6129,4.6178,4.6184,4.6193,4.6182,4.6194,4.6195,4.6192,4.6241,4.6204,4.6232,4.6278,4.6285,4.6294,4.64,4.637,4.6409,4.6471,4.6506,4.6518,4.6529,4.6565,4.6578,4.6417,4.6417,4.6417,0,4.6182,4.623,4.6206,4.6246,4.6259,4.6216,4.6264,4.6272,4.6288,4.6297,4.6269,4.6325,4.6328,4.639,4.6415,4.6426,4.6437,4.6407,4.6519,4.6529,4.6539,4.6572,4.6586,4.6421,4.6421,4.6421,4.642,0,4.6301,4.6335,4.6374,4.639,4.6407,4.6452,4.6433,4.6453,4.6434,4.6425,4.6475,4.6477,4.6499,4.6513,4.6495,4.6572,4.6555,4.6524,4.6472,4.6559,4.659,4.6603,4.6428,4.6426,4.6425,4.6424,0,0,4.6449,4.6451,4.6465,4.6471,4.6477,4.6503,4.6545,4.6567,4.6583,4.6596,4.6629,4.6669,4.6639,4.665,4.6632,4.6663,4.6744,4.6627,4.6627,4.6646,4.6826,4.6848,4.6863,4.6725,4.6727,4.6729,4.6825,0,4.6549,4.662,4.6599,4.667,4.67,4.666,4.6696,4.6703,4.6696,4.672,4.6713,4.674,4.67,4.6706,4.6735,4.6728,4.6779,4.6721,4.6753,4.6754,4.6749,4.688,4.6904,4.6994,4.6837,4.6839,4.684,0,4.6675,4.6692,4.6766,4.6766,4.6778,4.6811,4.6828,4.6852,4.6859,4.6852,4.6864,4.6839,4.6878,4.6829,4.6882,4.6843,4.6855,4.6853,4.6856,4.6856,4.6801,4.6881,4.7022,4.7035,4.6859,4.6858,4.6857,0,4.6772,4.6814,4.6863,4.687,4.6871,4.6895,4.6897,4.6901,4.6915,4.693,4.6938,4.6959,4.6969,4.6985,4.6966,4.6932,4.7021,4.697,4.7014,4.7015,4.7033,4.7031,4.7175,4.7045,4.7045,4.7045,4.7045,0,4.6885,4.6931,4.6906,4.6936,4.6986,4.6962,4.7012,4.7009,4.7013,4.704,4.7008,4.7034,4.7008,4.7032,4.7018,4.7062,4.7068,4.7062,4.7057,4.7064,4.7064,4.7069,4.7062,4.7048,4.7048,4.7047,4.7046,0,4.7001,4.6987,4.7037,4.7034,4.7034,4.7071,4.7068,4.7095,4.7086,4.7121,4.7128,4.7114,4.714,4.7123,4.715,4.714,4.7198,4.7186,4.7196,4.7191,4.7235,4.723,4.7385,4.7403,4.7264,4.7266,4.7267,0,4.7073,4.7107,4.7108,4.7124,4.7127,4.7154,4.7168,4.7145,4.7161,4.7171,4.7196,4.722,4.7237,4.7281,4.7273,4.7293,4.7279,4.7332,4.7282,4.7287,4.7277,4.7274,4.7276,4.7342,4.7343,4.7345,4.7346,0,4.72,4.7191,4.7213,4.7231,4.7249,4.7262,4.7273,4.7288,4.7265,4.7284,4.7311,4.7325,4.7352,4.7375,4.7391,4.7392,4.7365,4.7362,4.7373,4.7378,4.7381,4.7378,4.722,4.7358,4.7357,4.7356,4.7355,4.7355,4.7295,4.7322,4.7326,4.7351,4.7357,4.7367,4.7392,4.7386,4.7407,4.7427,4.7413,4.7444,4.7448,4.7468,4.7472,4.7495,4.7473,4.749,4.7493,4.7497,4.7502,4.738,4.7499,4.7498,4.7498,4.7497,4.7497,0,4.7418,4.7419,4.7442,4.7457,4.7476,4.745,4.746,4.7477,4.7505,4.7512,4.7529,4.7559,4.7581,4.7575,4.7594,4.7614,4.7602,4.7619,4.7616,4.7617,4.7522,4.7509,4.7629,4.7629,4.7629,4.7629,4.7629,4.7629,4.7485,4.7529,4.7521,4.7567,4.7567,4.7597,4.7605,4.7614,4.7619,4.7654,4.7672,4.7667,4.7668,4.7688,4.7706,4.7704,4.7711,4.7733,4.7726,4.7637,4.7624,4.7611,4.7599,4.7736,4.7736,4.7819,4.7819,4.782]}]]